Weather History for Fort Bridger AP, Fort Bridger, WY

Change the Weather History Date:

Saturday, March 8, 2014

  Actual Average (KEVW) Record (KEVW)
Temperature  
Mean Temperature 36 °F 28 °F  
Max Temperature 46 °F 37 °F 44 °F (2005)
Min Temperature 27 °F 20 °F 3 °F (1998)
Degree Days  
Heating Degree Days 28 37  
Month to date heating degree days 303  
Since 1 July heating degree days 6311  
Cooling Degree Days 0 0  
Month to date cooling degree days 0  
Year to date cooling degree days 0  
Moisture  
Dew Point 25 °F    
Average Humidity 66    
Maximum Humidity 91    
Minimum Humidity 40    
Precipitation  
Precipitation 0.00 in 0.02 in 0.14 in (2007)
Month to date precipitation 0.17  
Year to date precipitation 1.32  
Sea Level Pressure  
Sea Level Pressure 30.35 in    
Wind  
Wind Speed 9 mph (West)    
Max Wind Speed 15 mph    
Max Gust Speed 22 mph    
Visibility 10 miles    
Events      
T = Trace of Precipitation, MM = Missing Value Source: NWS Daily Summary

Daily Weather History Graph

Daily Weather History Graph

Search for Another Location

Airport:

Trip Planner

Search our weather history database for the weather conditions in past years. The results will help you decide how hot, cold, wet, or windy it might be!

Date:

Astronomy

Mar. 08, 2014 Rise Set
Actual Time 6:44 AM MST 6:20 PM MST
Civil Twilight 6:17 AM MST 6:48 PM MST
Nautical Twilight 5:45 AM MST 7:20 PM MST
Astronomical Twilight 5:13 AM MST 7:52 PM MST
Moon 11:24 AM MST (3/8) 1:25 AM MST (3/8)
Length of Visible Light 12h 30m
Length of Day
11h 35m
First Quarter, 52% of the Moon is Illuminated
Mar 8
First Quarter
Mar 16
Full
Mar 23
Last Quarter
Mar 30
New
Apr 7
First Quarter

Hourly Weather History & Observations

Time (MST) Temp. Windchill Dew Point Humidity Pressure Visibility Wind Dir Wind Speed Gust Speed Precip Events Conditions
12:15 AM 31.6 °F 23.1 °F 25.7 °F 79% 30.27 in 10.0 mi West 10.4 mph - N/A   Overcast
12:35 AM 30.7 °F 22.6 °F 25.3 °F 80% 30.27 in 10.0 mi West 9.2 mph - N/A   Mostly Cloudy
12:55 AM 29.8 °F 22.2 °F 25.3 °F 83% 30.27 in 10.0 mi West 8.1 mph - N/A   Clear
1:15 AM 30.2 °F 21.9 °F 25.2 °F 82% 30.28 in 10.0 mi West 9.2 mph - N/A   Clear
1:35 AM 29.3 °F 20.8 °F 25.2 °F 85% 30.28 in 10.0 mi West 9.2 mph - N/A   Clear
1:55 AM 29.3 °F 20.8 °F 25.3 °F 85% 30.29 in 10.0 mi West 9.2 mph - N/A   Clear
2:15 AM 29.3 °F 21.5 °F 25.3 °F 85% 30.29 in 10.0 mi West 8.1 mph - N/A   Clear
2:35 AM 29.1 °F 20.6 °F 25.3 °F 86% 30.29 in 10.0 mi WSW 9.2 mph - N/A   Clear
2:55 AM 28.8 °F 20.2 °F 25.3 °F 87% 30.30 in 10.0 mi West 9.2 mph - N/A   Clear
3:15 AM 28.4 °F 20.4 °F 25.3 °F 88% 30.30 in 10.0 mi West 8.1 mph - N/A   Clear
3:35 AM 28.4 °F 19.7 °F 25.5 °F 89% 30.30 in 10.0 mi West 9.2 mph - N/A   Clear
3:55 AM 28.4 °F 20.4 °F 25.3 °F 88% 30.31 in 10.0 mi West 8.1 mph - N/A   Clear
4:15 AM 28.4 °F 19.7 °F 25.2 °F 88% 30.31 in 10.0 mi West 9.2 mph - N/A   Clear
4:35 AM 28.2 °F 19.5 °F 25.3 °F 89% 30.31 in 10.0 mi West 9.2 mph - N/A   Clear
4:55 AM 28.0 °F 20.8 °F 25.0 °F 88% 30.32 in 10.0 mi West 6.9 mph - N/A   Clear
5:15 AM 27.5 °F 19.3 °F 24.8 °F 90% 30.32 in 10.0 mi West 8.1 mph - N/A   Clear
5:35 AM 27.5 °F 19.3 °F 25.2 °F 91% 30.33 in 10.0 mi West 8.1 mph - N/A   Clear
5:55 AM 27.9 °F 19.8 °F 25.2 °F 90% 30.33 in 10.0 mi West 8.1 mph - N/A   Clear
6:15 AM 27.9 °F 19.1 °F 25.2 °F 90% 30.34 in 10.0 mi West 9.2 mph - N/A   Clear
6:35 AM 27.3 °F 19.1 °F 24.8 °F 90% 30.34 in 10.0 mi WSW 8.1 mph - N/A   Clear
6:55 AM 27.5 °F 19.3 °F 25.0 °F 90% 30.34 in 10.0 mi West 8.1 mph - N/A   Clear
7:15 AM 28.4 °F 21.2 °F 25.5 °F 89% 30.35 in 10.0 mi WSW 6.9 mph - N/A   Clear
7:35 AM 29.8 °F 23.0 °F 26.1 °F 86% 30.35 in 10.0 mi WSW 6.9 mph - N/A   Clear
7:55 AM 31.6 °F 24.4 °F 26.6 °F 82% 30.36 in 10.0 mi West 8.1 mph - N/A   Clear
8:15 AM 32.2 °F 26.7 °F 26.4 °F 79% 30.36 in 10.0 mi West 5.8 mph - N/A   Clear
8:35 AM 33.3 °F 26.4 °F 26.4 °F 76% 30.37 in 10.0 mi West 8.1 mph - N/A   Clear
8:55 AM 34.2 °F 29.0 °F 26.2 °F 73% 30.36 in 10.0 mi West 5.8 mph - N/A   Clear
9:15 AM 34.3 °F 31.4 °F 25.3 °F 70% 30.35 in 10.0 mi West 3.5 mph - N/A   Clear
9:30 AM 34.7 °F 30.6 °F 24.6 °F 67% 30.35 in 10.0 mi West 4.6 mph - N/A   Clear
9:55 AM 36.3 °F 31.6 °F 24.4 °F 62% 30.36 in 10.0 mi West 5.8 mph - N/A   Clear
10:15 AM 38.1 °F 33.7 °F 24.4 °F 58% 30.37 in 10.0 mi West 5.8 mph - N/A   Clear
10:35 AM 38.3 °F 29.7 °F 25.2 °F 59% 30.39 in 10.0 mi WNW 15.0 mph 19.6 mph N/A   Clear
10:55 AM 40.1 °F 32.7 °F 24.6 °F 54% 30.40 in 10.0 mi WNW 12.7 mph 20.7 mph N/A   Clear
11:15 AM 40.3 °F 32.2 °F 26.1 °F 57% 30.40 in 10.0 mi WNW 15.0 mph 19.6 mph N/A   Scattered Clouds
11:35 AM 40.3 °F 32.6 °F 28.0 °F 62% 30.41 in 10.0 mi WNW 13.8 mph 21.9 mph N/A   Scattered Clouds
11:55 AM 40.8 °F 34.1 °F 26.4 °F 57% 30.41 in 10.0 mi West 11.5 mph 17.3 mph N/A   Scattered Clouds
12:15 PM 41.2 °F 34.1 °F 26.1 °F 55% 30.41 in 10.0 mi West 12.7 mph 18.4 mph N/A   Clear
12:35 PM 41.9 °F 35.0 °F 26.4 °F 54% 30.40 in 10.0 mi West 12.7 mph - N/A   Clear
12:55 PM 43.0 °F 35.7 °F 25.7 °F 51% 30.39 in 10.0 mi West 15.0 mph 19.6 mph N/A   Clear
1:15 PM 43.5 °F 37.1 °F 24.4 °F 47% 30.38 in 10.0 mi WNW 12.7 mph 17.3 mph N/A   Clear
1:35 PM 44.4 °F 39.0 °F 24.6 °F 46% 30.38 in 10.0 mi WNW 10.4 mph 19.6 mph N/A   Clear
1:55 PM 44.8 °F 39.0 °F 24.8 °F 46% 30.37 in 10.0 mi West 11.5 mph 19.6 mph N/A   Clear
2:15 PM 45.7 °F 40.6 °F 24.4 °F 43% 30.37 in 10.0 mi West 10.4 mph 18.4 mph N/A   Clear
2:35 PM 45.5 °F 40.8 °F 25.0 °F 45% 30.37 in 10.0 mi West 9.2 mph 18.4 mph N/A   Clear
2:55 PM 45.5 °F 41.3 °F 24.8 °F 44% 30.37 in 10.0 mi West 8.1 mph 16.1 mph N/A   Clear
3:15 PM 46.0 °F 41.4 °F 23.0 °F 40% 30.36 in 10.0 mi West 9.2 mph - N/A   Clear
3:40 PM 46.4 °F 41.9 °F 23.5 °F 41% 30.35 in 10.0 mi West 9.2 mph - N/A   Clear
3:55 PM 46.2 °F 41.7 °F 23.4 °F 41% 30.35 in 10.0 mi West 9.2 mph - N/A   Clear
4:15 PM 46.4 °F 42.4 °F 23.7 °F 41% 30.34 in 10.0 mi West 8.1 mph - N/A   Clear
4:35 PM 46.4 °F 41.5 °F 24.8 °F 43% 30.34 in 10.0 mi West 10.4 mph - N/A   Clear
4:55 PM 45.7 °F 40.6 °F 24.3 °F 43% 30.35 in 10.0 mi West 10.4 mph 17.3 mph N/A   Clear
5:15 PM 45.0 °F 39.7 °F 25.2 °F 46% 30.36 in 10.0 mi West 10.4 mph - N/A   Clear
5:35 PM 43.7 °F 37.3 °F 25.5 °F 49% 30.37 in 10.0 mi West 12.7 mph 16.1 mph N/A   Clear
5:55 PM 41.9 °F 35.0 °F 24.6 °F 50% 30.38 in 10.0 mi West 12.7 mph - N/A   Clear
6:15 PM 39.6 °F 33.0 °F 24.8 °F 56% 30.38 in 10.0 mi West 10.4 mph - N/A   Clear
6:35 PM 37.8 °F 30.7 °F 24.8 °F 60% 30.39 in 10.0 mi West 10.4 mph - N/A   Clear
6:55 PM 37.0 °F 30.4 °F 23.5 °F 58% 30.40 in 10.0 mi WSW 9.2 mph - N/A   Clear
7:15 PM 37.4 °F 30.3 °F 22.5 °F 55% 30.40 in 10.0 mi WSW 10.4 mph - N/A   Clear
7:35 PM 37.9 °F 30.9 °F 22.6 °F 54% 30.40 in 10.0 mi WSW 10.4 mph - N/A   Clear
7:55 PM 37.6 °F 31.6 °F 23.0 °F 56% 30.40 in 10.0 mi WSW 8.1 mph - N/A   Clear
8:15 PM 37.4 °F 31.4 °F 23.0 °F 56% 30.40 in 10.0 mi WSW 8.1 mph - N/A   Clear
8:35 PM 37.0 °F 31.0 °F 23.0 °F 57% 30.39 in 10.0 mi SW 8.1 mph - N/A   Clear
8:55 PM 36.5 °F 29.7 °F 22.5 °F 57% 30.39 in 10.0 mi WSW 9.2 mph - N/A   Clear
9:15 PM 35.8 °F 27.3 °F 23.0 °F 60% 30.39 in 10.0 mi SW 12.7 mph - N/A   Clear
9:35 PM 36.7 °F 28.0 °F 23.0 °F 58% 30.38 in 10.0 mi WSW 13.8 mph - N/A   Clear
9:55 PM 36.9 °F 28.7 °F 23.0 °F 57% 30.38 in 10.0 mi WSW 12.7 mph - N/A   Clear
10:15 PM 35.6 °F 27.1 °F 23.7 °F 62% 30.38 in 10.0 mi SW 12.7 mph - N/A   Clear
10:35 PM 33.8 °F 25.8 °F 24.3 °F 68% 30.37 in 10.0 mi SW 10.4 mph - N/A   Clear
10:55 PM 34.9 °F 29.9 °F 23.9 °F 64% 30.37 in 10.0 mi SW 5.8 mph - N/A   Clear
11:15 PM 35.6 °F 27.1 °F 23.9 °F 62% 30.37 in 10.0 mi WSW 12.7 mph - N/A   Clear
11:35 PM 35.2 °F 27.6 °F 23.4 °F 62% 30.36 in 10.0 mi WSW 10.4 mph - N/A   Clear
11:55 PM 34.0 °F 28.0 °F 23.4 °F 65% 30.35 in 10.0 mi West 6.9 mph - N/A   Clear